Time,TemperatureF,DewpointF,PressureIn,WindDirection,WindDirectionDegrees,WindSpeedMPH,WindSpeedGustMPH,Humidity,HourlyPrecipIn,Conditions,Clouds,dailyrainin,SoftwareType,DateUTC
2013-01-08 00:03:00,39.2,16.9,29.88,NNW,331,0.0,3.1,40,0.00,,---,0.00,VWS V14.01,2013-01-08 07:03:00,
2013-01-08 00:08:00,38.5,16.8,29.85,North,0,0.0,6.3,41,0.00,,---,0.00,VWS V14.01,2013-01-08 07:08:00,
2013-01-08 00:13:00,38.8,17.2,29.85,NW,324,3.1,11.0,41,0.00,,---,0.00,VWS V14.01,2013-01-08 07:13:00,
2013-01-08 00:18:00,38.8,16.6,29.85,North,4,3.1,4.0,40,0.00,,---,0.00,VWS V14.01,2013-01-08 07:18:00,
2013-01-08 00:23:00,39.4,16.5,29.88,WSW,241,10.1,10.5,39,0.00,,---,0.00,VWS V14.01,2013-01-08 07:23:00,
2013-01-08 00:28:00,40.5,17.5,29.88,North,357,4.9,10.5,39,0.00,,---,0.00,VWS V14.01,2013-01-08 07:28:00,
2013-01-08 00:33:00,39.0,16.8,29.88,East,96,0.0,4.0,40,0.00,,---,0.00,VWS V14.01,2013-01-08 07:33:00,
2013-01-08 00:38:00,37.9,15.8,29.88,NE,44,5.8,8.3,40,0.00,,---,0.00,VWS V14.01,2013-01-08 07:38:00,
2013-01-08 00:43:00,38.3,16.7,29.88,NE,53,4.0,8.3,41,0.00,,---,0.00,VWS V14.01,2013-01-08 07:43:00,
2013-01-08 00:48:00,37.9,16.4,29.88,North,2,3.6,5.8,41,0.00,,---,0.00,VWS V14.01,2013-01-08 07:48:00,
2013-01-08 00:53:00,37.6,16.0,29.88,NE,43,2.7,5.8,41,0.00,,---,0.00,VWS V14.01,2013-01-08 07:53:00,
2013-01-08 00:58:00,37.4,15.9,29.88,SE,141,5.4,5.8,41,0.00,,---,0.00,VWS V14.01,2013-01-08 07:58:00,
2013-01-08 01:03:00,38.7,16.4,29.88,ENE,57,4.9,7.6,40,0.00,,---,0.00,VWS V14.01,2013-01-08 08:03:00,
2013-01-08 01:08:00,38.8,16.6,29.88,NNE,30,3.1,7.6,40,0.00,,---,0.00,VWS V14.01,2013-01-08 08:08:00,
2013-01-08 01:13:00,38.7,16.4,29.88,NNE,29,3.1,7.6,40,0.00,,---,0.00,VWS V14.01,2013-01-08 08:13:00,
2013-01-08 01:18:00,38.8,16.6,29.88,WNW,299,4.9,5.4,40,0.00,,---,0.00,VWS V14.01,2013-01-08 08:18:00,
2013-01-08 01:23:00,38.7,16.4,29.91,NNE,17,0.0,5.4,40,0.00,,---,0.00,VWS V14.01,2013-01-08 08:23:00,
2013-01-08 01:28:00,38.7,16.4,29.91,NNE,13,5.4,6.7,40,0.00,,---,0.00,VWS V14.01,2013-01-08 08:28:00,
2013-01-08 01:33:00,38.7,15.9,29.91,SW,228,7.6,10.1,39,0.00,,---,0.00,VWS V14.01,2013-01-08 08:33:00,
2013-01-08 01:38:00,40.3,16.7,29.88,South,186,11.9,11.9,38,0.00,,---,0.00,VWS V14.01,2013-01-08 08:38:00,
2013-01-08 01:43:00,41.0,15.5,29.88,East,90,2.7,15.0,35,0.00,,---,0.00,VWS V14.01,2013-01-08 08:43:00,
2013-01-08 01:48:00,40.8,15.3,29.88,SW,215,5.8,5.8,35,0.00,,---,0.00,VWS V14.01,2013-01-08 08:48:00,
2013-01-08 01:53:00,40.8,15.3,29.91,WSW,238,5.8,10.5,35,0.00,,---,0.00,VWS V14.01,2013-01-08 08:53:00,
2013-01-08 01:58:00,40.5,15.0,29.91,NW,324,4.0,10.5,35,0.00,,---,0.00,VWS V14.01,2013-01-08 08:58:00,
2013-01-08 02:03:00,39.7,15.0,29.91,NW,313,2.7,2.7,36,0.00,,---,0.00,VWS V14.01,2013-01-08 09:03:00,
2013-01-08 02:08:00,39.4,15.3,29.91,NE,52,2.2,4.0,37,0.00,,---,0.00,VWS V14.01,2013-01-08 09:08:00,
2013-01-08 02:13:00,39.0,15.6,29.91,NNE,16,2.2,6.3,38,0.00,,---,0.00,VWS V14.01,2013-01-08 09:13:00,
2013-01-08 02:18:00,39.0,15.6,29.91,WSW,238,4.9,6.3,38,0.00,,---,0.00,VWS V14.01,2013-01-08 09:18:00,
2013-01-08 02:23:00,39.9,15.1,29.91,SSW,192,0.0,10.1,36,0.00,,---,0.00,VWS V14.01,2013-01-08 09:23:00,
2013-01-08 02:28:00,39.9,15.1,29.91,SSW,208,2.7,10.1,36,0.00,,---,0.00,VWS V14.01,2013-01-08 09:28:00,
2013-01-08 02:33:00,39.7,15.0,29.91,South,178,0.0,6.3,36,0.00,,---,0.00,VWS V14.01,2013-01-08 09:33:00,
2013-01-08 02:38:00,39.4,14.7,29.94,SE,142,0.0,6.3,36,0.00,,---,0.00,VWS V14.01,2013-01-08 09:38:00,
2013-01-08 02:43:00,38.8,14.2,29.94,East,99,0.0,6.3,36,0.00,,---,0.00,VWS V14.01,2013-01-08 09:43:00,
2013-01-08 02:48:00,38.1,14.2,29.94,WSW,251,4.0,5.8,37,0.00,,---,0.00,VWS V14.01,2013-01-08 09:48:00,
2013-01-08 02:53:00,38.5,14.5,29.94,South,189,5.8,7.6,37,0.00,,---,0.00,VWS V14.01,2013-01-08 09:53:00,
2013-01-08 02:58:00,39.6,14.2,29.94,WSW,243,4.9,9.6,35,0.00,,---,0.00,VWS V14.01,2013-01-08 09:58:00,
2013-01-08 03:03:00,39.6,14.2,29.94,South,172,3.6,11.4,35,0.00,,---,0.00,VWS V14.01,2013-01-08 10:03:00,
2013-01-08 03:08:00,39.4,14.0,29.94,East,93,2.7,11.4,35,0.00,,---,0.00,VWS V14.01,2013-01-08 10:08:00,
2013-01-08 03:13:00,39.2,13.9,29.94,WSW,248,0.0,11.4,35,0.00,,---,0.00,VWS V14.01,2013-01-08 10:13:00,
2013-01-08 03:18:00,38.5,13.2,29.94,North,357,2.2,2.2,35,0.00,,---,0.00,VWS V14.01,2013-01-08 10:18:00,
2013-01-08 03:23:00,38.1,13.5,29.94,NW,305,3.1,6.3,36,0.00,,---,0.00,VWS V14.01,2013-01-08 10:23:00,
2013-01-08 03:28:00,38.5,13.9,29.94,ESE,116,4.0,6.3,36,0.00,,---,0.00,VWS V14.01,2013-01-08 10:28:00,
2013-01-08 03:33:00,38.8,13.5,29.94,SE,143,4.9,6.3,35,0.00,,---,0.00,VWS V14.01,2013-01-08 10:33:00,
2013-01-08 03:38:00,39.4,13.4,29.94,North,357,0.0,6.3,34,0.00,,---,0.00,VWS V14.01,2013-01-08 10:38:00,
2013-01-08 03:43:00,39.0,13.7,29.94,North,8,4.0,6.3,35,0.00,,---,0.00,VWS V14.01,2013-01-08 10:43:00,
2013-01-08 03:48:00,38.8,14.2,29.94,NNE,23,0.0,4.0,36,0.00,,---,0.00,VWS V14.01,2013-01-08 10:48:00,
2013-01-08 03:53:00,38.7,13.4,29.94,NE,42,3.1,6.3,35,0.00,,---,0.00,VWS V14.01,2013-01-08 10:53:00,
2013-01-08 03:58:00,38.7,14.0,29.94,NE,36,0.0,6.3,36,0.00,,---,0.00,VWS V14.01,2013-01-08 10:58:00,
2013-01-08 04:03:00,37.9,13.4,29.94,NE,38,0.0,0.0,36,0.00,,---,0.00,VWS V14.01,2013-01-08 11:03:00,
2013-01-08 04:08:00,37.9,13.4,29.94,SSE,151,0.0,3.1,36,0.00,,---,0.00,VWS V14.01,2013-01-08 11:08:00,
2013-01-08 04:13:00,37.9,13.4,29.94,WSW,238,10.5,10.5,36,0.00,,---,0.00,VWS V14.01,2013-01-08 11:13:00,
2013-01-08 04:18:00,38.8,13.5,29.94,East,86,6.7,8.3,35,0.00,,---,0.00,VWS V14.01,2013-01-08 11:18:00,
2013-01-08 04:23:00,39.6,14.2,29.97,SSE,168,4.9,8.3,35,0.00,,---,0.00,VWS V14.01,2013-01-08 11:23:00,
2013-01-08 04:28:00,39.7,14.3,29.97,East,96,3.1,8.3,35,0.00,,---,0.00,VWS V14.01,2013-01-08 11:28:00,
2013-01-08 04:33:00,39.4,14.0,29.97,ESE,122,3.6,7.6,35,0.00,,---,0.00,VWS V14.01,2013-01-08 11:33:00,
2013-01-08 04:38:00,39.2,13.9,29.97,SE,135,2.7,7.6,35,0.00,,---,0.00,VWS V14.01,2013-01-08 11:38:00,
2013-01-08 04:43:00,38.8,14.2,29.97,NE,37,0.0,7.6,36,0.00,,---,0.00,VWS V14.01,2013-01-08 11:43:00,
2013-01-08 04:48:00,38.5,13.9,29.97,ENE,66,3.1,3.1,36,0.00,,---,0.00,VWS V14.01,2013-01-08 11:48:00,
2013-01-08 04:54:00,38.5,13.9,29.97,ESE,106,4.0,5.4,36,0.00,,---,0.00,VWS V14.01,2013-01-08 11:54:00,
2013-01-08 04:59:00,38.7,14.6,29.97,North,353,3.1,6.3,37,0.00,,---,0.00,VWS V14.01,2013-01-08 11:59:00,
2013-01-08 05:04:00,39.0,14.3,29.97,North,0,2.7,5.8,36,0.00,,---,0.00,VWS V14.01,2013-01-08 12:04:00,
2013-01-08 05:09:00,38.8,14.2,29.97,NE,42,0.0,5.8,36,0.00,,---,0.00,VWS V14.01,2013-01-08 12:09:00,
2013-01-08 05:14:00,38.7,14.0,29.97,East,98,0.0,5.8,36,0.00,,---,0.00,VWS V14.01,2013-01-08 12:14:00,
2013-01-08 05:19:00,38.1,14.2,29.97,East,99,0.0,2.7,37,0.00,,---,0.00,VWS V14.01,2013-01-08 12:19:00,
2013-01-08 05:24:00,37.9,14.6,30.00,ENE,60,0.0,3.6,38,0.00,,---,0.00,VWS V14.01,2013-01-08 12:24:00,
2013-01-08 05:29:00,37.8,14.4,30.00,East,81,5.4,5.4,38,0.00,,---,0.00,VWS V14.01,2013-01-08 12:29:00,
2013-01-08 05:34:00,38.1,14.8,30.00,ESE,121,5.4,6.7,38,0.00,,---,0.00,VWS V14.01,2013-01-08 12:34:00,
2013-01-08 05:39:00,38.1,14.8,30.00,East,99,5.4,7.6,38,0.00,,---,0.00,VWS V14.01,2013-01-08 12:39:00,
2013-01-08 05:44:00,38.1,14.8,30.00,ESE,107,5.4,7.6,38,0.00,,---,0.00,VWS V14.01,2013-01-08 12:44:00,
2013-01-08 05:49:00,38.3,14.9,30.00,ESE,123,4.0,5.4,38,0.00,,---,0.00,VWS V14.01,2013-01-08 12:49:00,
2013-01-08 05:54:00,38.1,14.8,30.00,East,87,3.1,5.4,38,0.00,,---,0.00,VWS V14.01,2013-01-08 12:54:00,
2013-01-08 05:59:00,37.9,14.6,30.00,SE,127,4.9,8.1,38,0.00,,---,0.00,VWS V14.01,2013-01-08 12:59:00,
2013-01-08 06:04:00,38.7,14.6,30.00,SW,224,3.1,6.7,37,0.00,,---,0.00,VWS V14.01,2013-01-08 13:04:00,
2013-01-08 06:09:00,38.7,15.3,30.00,South,169,8.7,8.7,38,0.00,,---,0.00,VWS V14.01,2013-01-08 13:09:00,
2013-01-08 06:14:00,38.7,15.3,30.00,SSE,167,3.6,8.7,38,0.00,,---,0.00,VWS V14.01,2013-01-08 13:14:00,
2013-01-08 06:19:00,38.7,15.3,30.00,SSW,205,2.7,4.9,38,0.00,,---,0.00,VWS V14.01,2013-01-08 13:19:00,
2013-01-08 06:24:00,38.5,15.1,30.00,SSE,153,3.1,8.1,38,0.00,,---,0.00,VWS V14.01,2013-01-08 13:24:00,
2013-01-08 06:29:00,38.3,14.9,30.00,SSE,149,3.1,8.1,38,0.00,,---,0.00,VWS V14.01,2013-01-08 13:29:00,
2013-01-08 06:34:00,38.3,14.9,30.00,ESE,110,3.6,6.3,38,0.00,,---,0.00,VWS V14.01,2013-01-08 13:34:00,
2013-01-08 06:39:00,38.3,14.9,30.00,SSE,158,3.1,7.6,38,0.00,,---,0.00,VWS V14.01,2013-01-08 13:39:00,
2013-01-08 06:44:00,38.1,14.8,30.00,SE,140,3.6,7.6,38,0.00,,---,0.00,VWS V14.01,2013-01-08 13:44:00,
2013-01-08 06:49:00,38.1,14.8,30.00,East,79,3.6,4.0,38,0.00,,---,0.00,VWS V14.01,2013-01-08 13:49:00,
2013-01-08 06:54:00,37.8,14.4,30.03,South,172,4.9,4.9,38,0.00,,---,0.00,VWS V14.01,2013-01-08 13:54:00,
2013-01-08 06:59:00,37.6,14.3,30.03,SSE,152,2.7,4.9,38,0.00,,---,0.00,VWS V14.01,2013-01-08 13:59:00,
2013-01-08 07:04:00,37.2,14.6,30.03,ESE,119,2.7,4.0,39,0.00,,---,0.00,VWS V14.01,2013-01-08 14:04:00,
2013-01-08 07:09:00,37.0,14.4,30.03,SSE,150,2.7,4.0,39,0.00,,---,0.00,VWS V14.01,2013-01-08 14:09:00,
2013-01-08 07:14:00,37.0,14.4,30.03,SSE,153,3.6,5.8,39,0.00,,---,0.00,VWS V14.01,2013-01-08 14:14:00,
2013-01-08 07:19:00,37.4,14.7,30.03,South,170,3.1,6.3,39,0.00,,---,0.00,VWS V14.01,2013-01-08 14:19:00,
2013-01-08 07:24:00,37.8,14.4,30.03,East,95,2.7,6.3,38,0.00,,---,0.00,VWS V14.01,2013-01-08 14:24:00,
2013-01-08 07:29:00,38.1,13.5,30.03,SSE,162,4.5,8.3,36,0.00,,---,0.00,VWS V14.01,2013-01-08 14:29:00,
2013-01-08 07:34:00,38.1,14.2,30.03,SSE,147,2.7,7.6,37,0.00,,---,0.00,VWS V14.01,2013-01-08 14:34:00,
2013-01-08 07:39:00,38.3,13.7,30.03,SSE,165,5.4,10.1,36,0.00,,---,0.00,VWS V14.01,2013-01-08 14:39:00,
2013-01-08 07:44:00,38.5,13.9,30.03,SSE,154,4.9,10.1,36,0.00,,---,0.00,VWS V14.01,2013-01-08 14:44:00,
2013-01-08 07:49:00,37.9,13.4,30.03,South,182,2.7,5.8,36,0.00,,---,0.00,VWS V14.01,2013-01-08 14:49:00,
2013-01-08 07:54:00,37.8,13.8,30.03,SE,144,2.7,6.3,37,0.00,,---,0.00,VWS V14.01,2013-01-08 14:54:00,
2013-01-08 07:59:00,37.6,13.7,30.03,SE,139,2.7,6.3,37,0.00,,---,0.00,VWS V14.01,2013-01-08 14:59:00,
2013-01-08 08:04:00,37.0,13.8,30.03,ESE,118,4.0,4.0,38,0.00,,---,0.00,VWS V14.01,2013-01-08 15:04:00,
2013-01-08 08:09:00,37.4,13.5,30.03,SW,214,5.4,8.1,37,0.00,,---,0.00,VWS V14.01,2013-01-08 15:09:00,
2013-01-08 08:14:00,37.6,13.1,30.03,SW,229,0.0,8.1,36,0.00,,---,0.00,VWS V14.01,2013-01-08 15:14:00,
2013-01-08 08:19:00,37.4,12.9,30.03,South,191,4.5,5.8,36,0.00,,---,0.00,VWS V14.01,2013-01-08 15:19:00,
2013-01-08 08:24:00,37.8,13.2,30.06,SE,135,3.1,7.6,36,0.00,,---,0.00,VWS V14.01,2013-01-08 15:24:00,
2013-01-08 08:29:00,37.8,13.2,30.06,ESE,110,3.1,7.6,36,0.00,,---,0.00,VWS V14.01,2013-01-08 15:29:00,
2013-01-08 08:34:00,37.6,13.7,30.06,ESE,111,3.6,5.4,37,0.00,,---,0.00,VWS V14.01,2013-01-08 15:34:00,
2013-01-08 08:39:00,37.8,13.8,30.06,South,170,3.6,5.4,37,0.00,,---,0.00,VWS V14.01,2013-01-08 15:39:00,
2013-01-08 08:44:00,37.8,13.8,30.06,SSE,158,4.0,5.8,37,0.00,,---,0.00,VWS V14.01,2013-01-08 15:44:00,
2013-01-08 08:49:00,37.6,13.7,30.06,SE,142,4.9,7.6,37,0.00,,---,0.00,VWS V14.01,2013-01-08 15:49:00,
2013-01-08 08:54:00,37.6,13.7,30.06,SE,142,3.6,7.6,37,0.00,,---,0.00,VWS V14.01,2013-01-08 15:54:00,
2013-01-08 08:59:00,37.6,13.7,30.06,South,171,5.8,7.6,37,0.00,,---,0.00,VWS V14.01,2013-01-08 15:59:00,
2013-01-08 09:04:00,37.9,13.4,30.06,ESE,111,3.1,7.6,36,0.00,,---,0.00,VWS V14.01,2013-01-08 16:04:00,
2013-01-08 09:09:00,38.1,13.5,30.09,South,180,3.6,7.6,36,0.00,,---,0.00,VWS V14.01,2013-01-08 16:09:00,
2013-01-08 09:14:00,38.5,13.2,30.09,WSW,244,2.7,7.6,35,0.00,,---,0.00,VWS V14.01,2013-01-08 16:14:00,
2013-01-08 09:19:00,39.0,13.7,30.09,SSW,204,3.6,5.8,35,0.00,,---,0.00,VWS V14.01,2013-01-08 16:19:00,
2013-01-08 09:24:00,39.2,13.9,30.06,SSE,167,2.2,5.8,35,0.00,,---,0.00,VWS V14.01,2013-01-08 16:24:00,
2013-01-08 09:29:00,39.2,13.2,30.06,SSE,165,2.2,5.8,34,0.00,,---,0.00,VWS V14.01,2013-01-08 16:29:00,
2013-01-08 09:34:00,39.4,12.7,30.06,South,175,4.9,6.3,33,0.00,,---,0.00,VWS V14.01,2013-01-08 16:34:00,
2013-01-08 09:39:00,39.4,12.7,30.09,South,173,4.0,6.3,33,0.00,,---,0.00,VWS V14.01,2013-01-08 16:39:00,
2013-01-08 09:44:00,39.4,12.7,30.09,SSE,153,4.9,6.3,33,0.00,,---,0.00,VWS V14.01,2013-01-08 16:44:00,
2013-01-08 09:49:00,39.2,13.2,30.09,SE,131,3.6,4.9,34,0.00,,---,0.00,VWS V14.01,2013-01-08 16:49:00,
2013-01-08 09:54:00,39.0,13.0,30.09,SE,135,3.1,5.4,34,0.00,,---,0.00,VWS V14.01,2013-01-08 16:54:00,
2013-01-08 09:59:00,38.8,13.5,30.09,SSE,164,3.1,5.4,35,0.00,,---,0.00,VWS V14.01,2013-01-08 16:59:00,
2013-01-08 10:04:00,39.0,13.7,30.09,SE,126,2.7,4.0,35,0.00,,---,0.00,VWS V14.01,2013-01-08 17:04:00,
2013-01-08 10:09:00,39.2,13.9,30.09,SSE,151,2.7,4.0,35,0.00,,---,0.00,VWS V14.01,2013-01-08 17:09:00,
2013-01-08 10:14:00,39.2,13.9,30.09,SSE,165,0.0,4.0,35,0.00,,---,0.00,VWS V14.01,2013-01-08 17:14:00,
2013-01-08 10:19:00,39.2,13.9,30.09,SSE,165,0.0,0.0,35,0.00,,---,0.00,VWS V14.01,2013-01-08 17:19:00,
2013-01-08 10:24:00,39.2,13.9,30.09,SE,131,0.0,0.0,35,0.00,,---,0.00,VWS V14.01,2013-01-08 17:24:00,
2013-01-08 10:29:00,40.1,14.7,30.09,South,177,2.7,6.3,35,0.00,,---,0.00,VWS V14.01,2013-01-08 17:29:00,
2013-01-08 10:34:00,40.3,14.2,30.09,South,190,3.6,5.8,34,0.00,,---,0.00,VWS V14.01,2013-01-08 17:34:00,
2013-01-08 10:39:00,40.5,14.3,30.09,SE,134,2.7,5.8,34,0.00,,---,0.00,VWS V14.01,2013-01-08 17:39:00,
2013-01-08 10:44:00,40.8,14.6,30.09,SSE,160,3.6,5.8,34,0.00,,---,0.00,VWS V14.01,2013-01-08 17:44:00,
2013-01-08 10:49:00,41.0,14.1,30.09,SSE,153,2.7,4.9,33,0.00,,---,0.00,VWS V14.01,2013-01-08 17:49:00,
2013-01-08 10:54:00,41.2,14.3,30.09,South,191,3.6,6.3,33,0.00,,---,0.00,VWS V14.01,2013-01-08 17:54:00,
2013-01-08 10:59:00,41.5,14.6,30.09,South,180,4.0,6.3,33,0.00,,---,0.00,VWS V14.01,2013-01-08 17:59:00,
2013-01-08 11:04:00,41.7,14.1,30.09,SSW,207,5.4,6.3,32,0.00,,---,0.00,VWS V14.01,2013-01-08 18:04:00,
2013-01-08 11:09:00,42.1,14.4,30.09,SSW,199,4.9,6.3,32,0.00,,---,0.00,VWS V14.01,2013-01-08 18:09:00,
2013-01-08 11:14:00,42.4,14.7,30.09,South,187,3.1,6.3,32,0.00,,---,0.00,VWS V14.01,2013-01-08 18:14:00,
2013-01-08 11:19:00,43.0,15.2,30.09,SW,215,5.4,5.4,32,0.00,,---,0.00,VWS V14.01,2013-01-08 18:19:00,
2013-01-08 11:24:00,43.3,14.8,30.09,SSE,148,5.8,6.3,31,0.00,,---,0.00,VWS V14.01,2013-01-08 18:24:00,
2013-01-08 11:29:00,43.7,15.1,30.09,SSW,198,5.4,7.2,31,0.00,,---,0.00,VWS V14.01,2013-01-08 18:29:00,
2013-01-08 11:34:00,43.7,15.1,30.09,WSW,249,0.0,3.6,31,0.00,,---,0.00,VWS V14.01,2013-01-08 18:34:00,
2013-01-08 11:39:00,44.2,15.5,30.06,SE,144,0.0,3.6,31,0.00,,---,0.00,VWS V14.01,2013-01-08 18:39:00,
2013-01-08 11:44:00,44.2,15.5,30.06,East,92,4.0,4.9,31,0.00,,---,0.00,VWS V14.01,2013-01-08 18:44:00,
2013-01-08 11:49:00,43.9,15.2,30.06,SE,135,5.4,6.3,31,0.00,,---,0.00,VWS V14.01,2013-01-08 18:49:00,
2013-01-08 11:54:00,43.2,14.6,30.06,SE,137,3.6,6.3,31,0.00,,---,0.00,VWS V14.01,2013-01-08 18:54:00,
2013-01-08 11:59:00,42.8,14.3,30.06,SE,131,2.7,6.3,31,0.00,,---,0.00,VWS V14.01,2013-01-08 18:59:00,
2013-01-08 12:04:00,42.8,14.3,30.06,SE,129,2.7,5.4,31,0.00,,---,0.00,VWS V14.01,2013-01-08 19:04:00,
2013-01-08 12:09:00,42.8,14.3,30.06,South,172,3.6,5.4,31,0.00,,---,0.00,VWS V14.01,2013-01-08 19:09:00,
2013-01-08 12:14:00,42.6,14.8,30.06,ESE,117,0.0,5.4,32,0.00,,---,0.00,VWS V14.01,2013-01-08 19:14:00,
2013-01-08 12:19:00,43.7,15.1,30.06,SSW,200,3.6,3.6,31,0.00,,---,0.00,VWS V14.01,2013-01-08 19:19:00,
2013-01-08 12:24:00,44.2,15.5,30.06,South,178,0.0,4.9,31,0.00,,---,0.00,VWS V14.01,2013-01-08 19:24:00,
2013-01-08 12:29:00,44.6,15.9,30.06,SSW,204,0.0,4.9,31,0.00,,---,0.00,VWS V14.01,2013-01-08 19:29:00,
2013-01-08 12:34:00,45.0,15.4,30.06,SSE,150,2.7,4.5,30,0.00,,---,0.00,VWS V14.01,2013-01-08 19:34:00,
2013-01-08 12:39:00,44.8,15.3,30.06,SE,145,3.1,4.5,30,0.00,,---,0.00,VWS V14.01,2013-01-08 19:39:00,
2013-01-08 12:44:00,45.0,15.4,30.06,South,174,3.6,5.8,30,0.00,,---,0.00,VWS V14.01,2013-01-08 19:44:00,
2013-01-08 12:49:00,44.8,15.3,30.06,SSE,153,3.6,5.4,30,0.00,,---,0.00,VWS V14.01,2013-01-08 19:49:00,
2013-01-08 12:54:00,44.8,15.3,30.03,SE,132,6.3,7.2,30,0.00,,---,0.00,VWS V14.01,2013-01-08 19:54:00,
2013-01-08 12:59:00,44.6,15.1,30.03,South,183,4.0,8.7,30,0.00,,---,0.00,VWS V14.01,2013-01-08 19:59:00,
2013-01-08 13:04:00,45.0,15.4,30.03,ESE,117,5.8,5.8,30,0.00,,---,0.00,VWS V14.01,2013-01-08 20:04:00,
2013-01-08 13:09:00,44.8,14.5,30.03,SSE,150,3.6,7.6,29,0.00,,---,0.00,VWS V14.01,2013-01-08 20:09:00,
2013-01-08 13:14:00,44.6,14.3,30.03,ENE,75,3.1,7.6,29,0.00,,---,0.00,VWS V14.01,2013-01-08 20:14:00,
2013-01-08 13:19:00,44.4,14.9,30.03,NE,49,2.2,6.3,30,0.00,,---,0.00,VWS V14.01,2013-01-08 20:19:00,
2013-01-08 13:24:00,44.8,14.5,30.03,ENE,63,0.0,6.3,29,0.00,,---,0.00,VWS V14.01,2013-01-08 20:24:00,
2013-01-08 13:29:00,45.0,14.6,30.03,ENE,63,0.0,6.3,29,0.00,,---,0.00,VWS V14.01,2013-01-08 20:29:00,
2013-01-08 13:34:00,45.0,14.6,30.03,SSE,157,2.2,4.9,29,0.00,,---,0.00,VWS V14.01,2013-01-08 20:34:00,
2013-01-08 13:39:00,45.0,14.6,30.03,South,169,4.0,6.3,29,0.00,,---,0.00,VWS V14.01,2013-01-08 20:39:00,
2013-01-08 13:44:00,44.2,14.0,30.03,South,179,4.0,6.3,29,0.00,,---,0.00,VWS V14.01,2013-01-08 20:44:00,
2013-01-08 13:49:00,44.2,14.0,30.03,ESE,110,5.4,5.8,29,0.00,,---,0.00,VWS V14.01,2013-01-08 20:49:00,
2013-01-08 13:54:00,43.9,13.7,30.03,SSE,148,2.7,6.3,29,0.00,,---,0.00,VWS V14.01,2013-01-08 20:54:00,
2013-01-08 13:59:00,43.7,13.5,30.03,SE,139,3.1,7.6,29,0.00,,---,0.00,VWS V14.01,2013-01-08 20:59:00,
2013-01-08 14:04:00,43.9,13.7,30.03,SSE,157,3.6,6.3,29,0.00,,---,0.00,VWS V14.01,2013-01-08 21:04:00,
2013-01-08 14:09:00,43.9,13.7,30.03,SE,138,2.7,6.3,29,0.00,,---,0.00,VWS V14.01,2013-01-08 21:09:00,
2013-01-08 14:14:00,43.9,13.7,30.03,SE,146,3.1,6.3,29,0.00,,---,0.00,VWS V14.01,2013-01-08 21:14:00,
2013-01-08 14:19:00,43.5,13.4,30.03,SE,130,5.8,6.3,29,0.00,,---,0.00,VWS V14.01,2013-01-08 21:19:00,
2013-01-08 14:24:00,43.2,13.8,30.00,SE,139,5.8,6.3,30,0.00,,---,0.00,VWS V14.01,2013-01-08 21:24:00,
2013-01-08 14:29:00,42.8,13.5,30.00,SE,129,4.9,8.3,30,0.00,,---,0.00,VWS V14.01,2013-01-08 21:29:00,
2013-01-08 14:34:00,42.3,13.1,30.00,South,173,7.6,8.1,30,0.00,,---,0.00,VWS V14.01,2013-01-08 21:34:00,
2013-01-08 14:39:00,42.1,12.9,30.00,SE,127,3.6,10.5,30,0.00,,---,0.00,VWS V14.01,2013-01-08 21:39:00,
2013-01-08 14:44:00,42.1,12.9,30.00,ESE,112,5.4,10.5,30,0.00,,---,0.00,VWS V14.01,2013-01-08 21:44:00,
2013-01-08 14:49:00,42.3,13.1,30.00,ESE,118,5.8,8.7,30,0.00,,---,0.00,VWS V14.01,2013-01-08 21:49:00,
2013-01-08 14:54:00,42.3,13.1,30.00,ESE,116,4.0,8.7,30,0.00,,---,0.00,VWS V14.01,2013-01-08 21:54:00,
2013-01-08 14:59:00,42.3,13.1,30.00,ESE,118,2.7,8.7,30,0.00,,---,0.00,VWS V14.01,2013-01-08 21:59:00,
2013-01-08 15:04:00,42.3,13.1,30.00,SE,134,4.0,5.8,30,0.00,,---,0.00,VWS V14.01,2013-01-08 22:04:00,
2013-01-08 15:09:00,42.3,13.8,30.00,ESE,115,3.6,6.3,31,0.00,,---,0.00,VWS V14.01,2013-01-08 22:09:00,
2013-01-08 15:14:00,42.4,14.0,30.00,ESE,108,5.8,6.3,31,0.00,,---,0.00,VWS V14.01,2013-01-08 22:14:00,
2013-01-08 15:19:00,42.4,14.0,30.00,SE,141,6.3,6.3,31,0.00,,---,0.00,VWS V14.01,2013-01-08 22:19:00,
2013-01-08 15:24:00,42.3,13.8,30.00,ESE,111,6.3,8.7,31,0.00,,---,0.00,VWS V14.01,2013-01-08 22:24:00,
2013-01-08 15:29:00,42.1,13.6,30.00,SSE,158,8.1,10.1,31,0.00,,---,0.00,VWS V14.01,2013-01-08 22:29:00,
2013-01-08 15:34:00,42.1,13.6,30.00,ESE,106,5.8,8.3,31,0.00,,---,0.00,VWS V14.01,2013-01-08 22:34:00,
2013-01-08 15:39:00,42.1,13.6,30.00,SE,144,6.3,8.3,31,0.00,,---,0.00,VWS V14.01,2013-01-08 22:39:00,
2013-01-08 15:44:00,42.3,13.8,30.00,ESE,102,5.4,10.5,31,0.00,,---,0.00,VWS V14.01,2013-01-08 22:44:00,
2013-01-08 15:49:00,42.3,13.8,30.00,ESE,108,6.7,8.1,31,0.00,,---,0.00,VWS V14.01,2013-01-08 22:49:00,
2013-01-08 15:54:00,42.3,13.8,30.00,SSE,147,5.8,8.3,31,0.00,,---,0.00,VWS V14.01,2013-01-08 22:54:00,
2013-01-08 15:59:00,42.4,14.7,30.00,SSE,147,5.8,9.6,32,0.00,,---,0.00,VWS V14.01,2013-01-08 22:59:00,
2013-01-08 16:04:00,42.4,14.7,30.00,ESE,118,6.3,8.7,32,0.00,,---,0.00,VWS V14.01,2013-01-08 23:04:00,
2013-01-08 16:09:00,42.3,14.5,30.00,East,85,7.6,11.0,32,0.00,,---,0.00,VWS V14.01,2013-01-08 23:09:00,
2013-01-08 16:14:00,42.3,14.5,30.00,SE,139,5.8,11.0,32,0.00,,---,0.00,VWS V14.01,2013-01-08 23:14:00,
2013-01-08 16:19:00,42.1,14.4,30.00,SE,135,3.6,8.3,32,0.00,,---,0.00,VWS V14.01,2013-01-08 23:19:00,
2013-01-08 16:24:00,41.9,14.2,30.00,ESE,120,5.8,10.1,32,0.00,,---,0.00,VWS V14.01,2013-01-08 23:24:00,
2013-01-08 16:29:00,41.7,14.1,30.00,ESE,119,5.8,10.1,32,0.00,,---,0.00,VWS V14.01,2013-01-08 23:29:00,
2013-01-08 16:34:00,41.7,14.1,30.00,SSE,155,7.6,8.7,32,0.00,,---,0.00,VWS V14.01,2013-01-08 23:34:00,
2013-01-08 16:39:00,41.5,14.6,30.00,South,172,5.4,8.7,33,0.00,,---,0.00,VWS V14.01,2013-01-08 23:39:00,
2013-01-08 16:44:00,41.5,14.6,30.00,SE,141,5.4,9.2,33,0.00,,---,0.00,VWS V14.01,2013-01-08 23:44:00,
2013-01-08 16:49:00,41.2,14.3,30.00,ESE,122,4.0,6.3,33,0.00,,---,0.00,VWS V14.01,2013-01-08 23:49:00,
2013-01-08 16:54:00,41.2,15.0,30.00,SE,133,5.8,8.7,34,0.00,,---,0.00,VWS V14.01,2013-01-08 23:54:00,
2013-01-08 16:59:00,41.2,15.6,30.00,ESE,105,8.1,10.5,35,0.00,,---,0.00,VWS V14.01,2013-01-08 23:59:00,
2013-01-08 17:04:00,41.2,15.6,30.00,SE,136,6.3,10.5,35,0.00,,---,0.00,VWS V14.01,2013-01-09 00:04:00,
2013-01-08 17:09:00,41.2,16.3,30.00,SSE,158,3.6,10.5,36,0.00,,---,0.00,VWS V14.01,2013-01-09 00:09:00,
2013-01-08 17:14:00,41.0,16.1,30.00,SSW,192,8.1,10.5,36,0.00,,---,0.00,VWS V14.01,2013-01-09 00:14:00,
2013-01-08 17:19:00,40.8,17.2,30.00,SE,134,5.4,13.2,38,0.00,,---,0.00,VWS V14.01,2013-01-09 00:19:00,
2013-01-08 17:24:00,40.8,17.2,30.00,SSW,207,3.6,13.2,38,0.00,,---,0.00,VWS V14.01,2013-01-09 00:24:00,
2013-01-08 17:29:00,40.8,17.8,30.00,SSE,148,5.8,13.2,39,0.00,,---,0.00,VWS V14.01,2013-01-09 00:29:00,
2013-01-08 17:34:00,41.0,17.4,30.00,SE,143,5.4,8.1,38,0.00,,---,0.00,VWS V14.01,2013-01-09 00:34:00,
2013-01-08 17:39:00,41.0,18.0,30.00,South,170,8.3,8.7,39,0.00,,---,0.00,VWS V14.01,2013-01-09 00:39:00,
2013-01-08 17:44:00,41.0,18.0,30.00,SSE,162,8.3,9.6,39,0.00,,---,0.00,VWS V14.01,2013-01-09 00:44:00,
2013-01-08 17:49:00,40.8,17.8,30.00,SSE,164,8.3,8.3,39,0.00,,---,0.00,VWS V14.01,2013-01-09 00:49:00,
2013-01-08 17:54:00,40.5,18.1,30.00,South,174,5.8,8.7,40,0.00,,---,0.00,VWS V14.01,2013-01-09 00:54:00,
2013-01-08 17:59:00,40.6,18.8,30.00,SE,143,11.0,11.4,41,0.00,,---,0.00,VWS V14.01,2013-01-09 00:59:00,
2013-01-08 18:04:00,40.8,19.0,30.00,SSE,166,7.6,12.8,41,0.00,,---,0.00,VWS V14.01,2013-01-09 01:04:00,
2013-01-08 18:09:00,40.6,18.8,30.00,SSE,162,4.9,12.8,41,0.00,,---,0.00,VWS V14.01,2013-01-09 01:09:00,
2013-01-08 18:14:00,40.6,18.8,30.00,South,190,8.7,12.8,41,0.00,,---,0.00,VWS V14.01,2013-01-09 01:14:00,
2013-01-08 18:19:00,40.5,19.2,30.00,ESE,106,7.6,8.3,42,0.00,,---,0.00,VWS V14.01,2013-01-09 01:19:00,
2013-01-08 18:24:00,40.3,19.0,30.00,South,188,6.3,11.0,42,0.00,,---,0.00,VWS V14.01,2013-01-09 01:24:00,
2013-01-08 18:29:00,39.9,19.2,30.00,SSE,166,9.2,11.0,43,0.00,,---,0.00,VWS V14.01,2013-01-09 01:29:00,
2013-01-08 18:34:00,39.9,19.2,30.00,South,189,8.7,10.5,43,0.00,,---,0.00,VWS V14.01,2013-01-09 01:34:00,
2013-01-08 18:39:00,39.9,19.8,30.00,SSE,168,5.4,10.5,44,0.00,,---,0.00,VWS V14.01,2013-01-09 01:39:00,
2013-01-08 18:44:00,39.7,19.6,30.00,SW,226,4.0,10.5,44,0.00,,---,0.00,VWS V14.01,2013-01-09 01:44:00,
2013-01-08 18:49:00,39.7,20.1,30.00,WSW,251,3.6,6.3,45,0.00,,---,0.00,VWS V14.01,2013-01-09 01:49:00,
2013-01-08 18:54:00,39.6,20.0,30.00,SSE,152,0.0,6.3,45,0.00,,---,0.00,VWS V14.01,2013-01-09 01:54:00,
2013-01-08 18:59:00,39.4,19.8,30.00,SSE,161,8.7,9.2,45,0.00,,---,0.00,VWS V14.01,2013-01-09 01:59:00,
2013-01-08 19:04:00,39.7,20.7,30.00,SE,141,11.0,11.0,46,0.00,,---,0.00,VWS V14.01,2013-01-09 02:04:00,
2013-01-08 19:09:00,39.9,20.8,30.00,South,175,3.1,11.0,46,0.00,,---,0.00,VWS V14.01,2013-01-09 02:09:00,
2013-01-08 19:14:00,39.9,20.8,30.00,SSW,192,5.4,11.0,46,0.00,,---,0.00,VWS V14.01,2013-01-09 02:14:00,
2013-01-08 19:19:00,39.9,20.8,30.00,SE,146,0.0,8.7,46,0.00,,---,0.00,VWS V14.01,2013-01-09 02:19:00,
2013-01-08 19:24:00,39.9,20.8,30.00,SSW,203,4.0,10.5,46,0.00,,---,0.00,VWS V14.01,2013-01-09 02:24:00,
2013-01-08 19:29:00,40.1,21.0,30.00,SE,128,4.0,10.5,46,0.00,,---,0.00,VWS V14.01,2013-01-09 02:29:00,
2013-01-08 19:34:00,40.1,21.0,30.00,SSW,211,5.4,8.1,46,0.00,,---,0.00,VWS V14.01,2013-01-09 02:34:00,
2013-01-08 19:39:00,40.5,21.3,29.97,East,100,5.8,12.8,46,0.00,,---,0.00,VWS V14.01,2013-01-09 02:39:00,
2013-01-08 19:44:00,40.8,21.1,29.97,East,100,7.6,12.8,45,0.00,,---,0.00,VWS V14.01,2013-01-09 02:44:00,
2013-01-08 19:49:00,41.0,20.8,29.97,South,184,6.3,8.1,44,0.00,,---,0.00,VWS V14.01,2013-01-09 02:49:00,
2013-01-08 19:54:00,41.0,20.8,29.97,ESE,108,5.4,8.7,44,0.00,,---,0.00,VWS V14.01,2013-01-09 02:54:00,
2013-01-08 19:59:00,41.4,21.1,29.97,ESE,112,6.3,8.7,44,0.00,,---,0.00,VWS V14.01,2013-01-09 02:59:00,
2013-01-08 20:04:00,41.7,21.4,29.97,SE,138,7.6,11.0,44,0.00,,---,0.00,VWS V14.01,2013-01-09 03:04:00,
2013-01-08 20:09:00,41.7,20.9,29.97,ESE,113,12.3,15.0,43,0.00,,---,0.00,VWS V14.01,2013-01-09 03:09:00,
2013-01-08 20:14:00,41.7,20.9,29.97,SE,133,11.0,15.0,43,0.00,,---,0.00,VWS V14.01,2013-01-09 03:14:00,
2013-01-08 20:19:00,41.7,20.9,29.97,SE,135,7.6,10.1,43,0.00,,---,0.00,VWS V14.01,2013-01-09 03:19:00,
2013-01-08 20:49:00,41.7,20.9,30.00,East,97,6.3,6.3,43,0.00,,---,0.00,VWS V14.01,2013-01-09 03:49:00,
2013-01-08 20:54:00,41.7,20.9,30.00,ESE,122,7.6,10.5,43,0.00,,---,0.00,VWS V14.01,2013-01-09 03:54:00,
2013-01-08 20:59:00,41.9,21.0,30.00,SSE,153,10.1,10.5,43,0.00,,---,0.00,VWS V14.01,2013-01-09 03:59:00,
2013-01-08 21:04:00,41.7,20.9,30.00,ESE,119,8.1,12.8,43,0.00,,---,0.00,VWS V14.01,2013-01-09 04:04:00,
2013-01-08 21:09:00,41.9,21.0,30.00,ESE,118,5.8,12.8,43,0.00,,---,0.00,VWS V14.01,2013-01-09 04:09:00,
2013-01-08 21:14:00,41.7,20.9,30.00,ESE,123,6.3,12.8,43,0.00,,---,0.00,VWS V14.01,2013-01-09 04:14:00,
2013-01-08 21:19:00,41.7,20.9,30.00,SSE,159,5.4,8.7,43,0.00,,---,0.00,VWS V14.01,2013-01-09 04:19:00,
2013-01-08 21:24:00,41.5,21.3,29.97,SSE,162,4.9,10.1,44,0.00,,---,0.00,VWS V14.01,2013-01-09 04:24:00,
2013-01-08 21:29:00,41.4,21.1,29.97,ESE,112,4.9,10.1,44,0.00,,---,0.00,VWS V14.01,2013-01-09 04:29:00,
2013-01-08 21:34:00,41.2,20.9,29.97,ESE,122,5.8,10.1,44,0.00,,---,0.00,VWS V14.01,2013-01-09 04:34:00,
2013-01-08 21:39:00,41.4,21.1,29.97,East,90,4.9,10.1,44,0.00,,---,0.00,VWS V14.01,2013-01-09 04:39:00,
2013-01-08 21:44:00,41.4,21.1,29.97,East,89,5.4,10.1,44,0.00,,---,0.00,VWS V14.01,2013-01-09 04:44:00,
2013-01-08 21:49:00,41.7,21.4,29.97,ESE,110,6.3,7.6,44,0.00,,---,0.00,VWS V14.01,2013-01-09 04:49:00,
2013-01-08 21:54:00,41.9,21.6,30.00,ESE,109,2.7,7.6,44,0.00,,---,0.00,VWS V14.01,2013-01-09 04:54:00,
2013-01-08 21:59:00,41.9,21.6,30.00,ESE,109,4.9,7.6,44,0.00,,---,0.00,VWS V14.01,2013-01-09 04:59:00,
2013-01-08 22:00:00,41.9,21.6,30.00,East,87,4.0,7.6,44,0.00,,---,0.00,VWS V14.01,2013-01-09 05:00:00,
2013-01-08 22:01:00,41.9,21.6,30.00,ESE,102,4.9,6.3,44,0.00,,---,0.00,VWS V14.01,2013-01-09 05:01:00,
2013-01-08 22:02:00,41.9,21.6,30.00,East,97,5.4,6.3,44,0.00,,---,0.00,VWS V14.01,2013-01-09 05:02:00,
2013-01-08 22:07:00,42.1,21.8,30.00,SE,124,8.1,12.3,44,0.00,,---,0.00,VWS V14.01,2013-01-09 05:07:00,
2013-01-08 22:12:00,42.6,21.7,29.97,ESE,120,5.8,12.3,43,0.00,,---,0.00,VWS V14.01,2013-01-09 05:12:00,
2013-01-08 22:17:00,42.6,21.7,29.97,ESE,117,3.1,7.6,43,0.00,,---,0.00,VWS V14.01,2013-01-09 05:17:00,
2013-01-08 22:22:00,42.4,21.5,29.97,SE,135,3.1,7.6,43,0.00,,---,0.00,VWS V14.01,2013-01-09 05:22:00,
2013-01-08 22:27:00,42.4,21.5,29.97,SE,135,6.3,10.5,43,0.00,,---,0.00,VWS V14.01,2013-01-09 05:27:00,
2013-01-08 22:32:00,42.4,21.5,29.97,East,95,5.4,8.7,43,0.00,,---,0.00,VWS V14.01,2013-01-09 05:32:00,
2013-01-08 22:37:00,42.4,21.0,29.97,East,94,4.9,8.7,42,0.00,,---,0.00,VWS V14.01,2013-01-09 05:37:00,
2013-01-08 22:42:00,42.4,21.0,29.97,ESE,119,6.3,8.7,42,0.00,,---,0.00,VWS V14.01,2013-01-09 05:42:00,
2013-01-08 22:47:00,42.6,21.1,29.97,ESE,107,4.0,6.3,42,0.00,,---,0.00,VWS V14.01,2013-01-09 05:47:00,
2013-01-08 22:52:00,42.6,21.1,29.97,ESE,102,4.0,6.3,42,0.00,,---,0.00,VWS V14.01,2013-01-09 05:52:00,
2013-01-08 22:57:00,42.6,21.1,29.97,ESE,111,6.3,7.6,42,0.00,,---,0.00,VWS V14.01,2013-01-09 05:57:00,
2013-01-08 23:02:00,42.8,20.8,29.97,SE,137,8.3,9.6,41,0.00,,---,0.00,VWS V14.01,2013-01-09 06:02:00,
2013-01-08 23:07:00,42.8,20.8,29.97,SE,129,4.0,9.6,41,0.00,,---,0.00,VWS V14.01,2013-01-09 06:07:00,
2013-01-08 23:12:00,42.4,20.4,29.97,SSE,156,3.1,9.6,41,0.00,,---,0.00,VWS V14.01,2013-01-09 06:12:00,
2013-01-08 23:17:00,42.3,20.3,29.97,SE,145,3.6,6.3,41,0.00,,---,0.00,VWS V14.01,2013-01-09 06:17:00,
2013-01-08 23:22:00,42.4,20.4,29.97,SE,142,3.6,8.3,41,0.00,,---,0.00,VWS V14.01,2013-01-09 06:22:00,
2013-01-08 23:27:00,42.3,20.3,29.97,SSE,157,5.4,8.3,41,0.00,,---,0.00,VWS V14.01,2013-01-09 06:27:00,
2013-01-08 23:32:00,42.3,20.3,29.97,SE,138,6.3,10.1,41,0.00,,---,0.00,VWS V14.01,2013-01-09 06:32:00,
2013-01-08 23:37:00,42.3,20.3,29.97,SE,129,8.7,11.0,41,0.00,,---,0.00,VWS V14.01,2013-01-09 06:37:00,
2013-01-08 23:42:00,42.3,20.3,29.97,SE,140,8.1,11.0,41,0.00,,---,0.00,VWS V14.01,2013-01-09 06:42:00,
2013-01-08 23:47:00,42.3,20.3,29.97,SSE,147,10.1,11.0,41,0.00,,---,0.00,VWS V14.01,2013-01-09 06:47:00,
2013-01-08 23:52:00,42.4,20.4,29.97,SE,139,4.0,11.0,41,0.00,,---,0.00,VWS V14.01,2013-01-09 06:52:00,
2013-01-08 23:57:00,41.7,19.8,29.97,SSE,161,5.4,11.0,41,0.00,,---,0.00,VWS V14.01,2013-01-09 06:57:00,